[[{"header":{"parameterUnit":"m.s-1","parameterCategory":1,"la1":30.2991,"la2":30.254,"lo1":-89.0895,"lo2":-89.0444,"dy":0.0017,"dx":0.0017,"nx":28,"ny":28,"refTime":"2024-05-06T21:00:00:Z","depth":0,"parameterNumber":2,"parameterNumberName":"U-component_of_WINDS"},"data":[0,0,0,0,0,0,0,0,0,0,0,0,0,0,0,0,0,0,0,0,0,0,0,0,0,0,0,0,0,0,0,0,0,0,0,0,0,0,0,0,0,0,0,0,0,0,0,0,0,0,0,0,0,0,0,0,0,0,-1.3869,-1.387,0,-1.3954,-1.3955,-1.3956,-1.3989,-1.3989,-1.3988,-1.3988,-1.4079,-1.4082,-1.4084,0,0,0,0,0,0,0,0,0,0,0,0,0,-1.3738,-1.374,-1.3869,-1.387,-1.3871,-1.3954,-1.3956,-1.3957,-1.3989,-1.3989,-1.3988,-1.3988,-1.4078,-1.4081,-1.4085,0,0,0,0,0,0,0,0,0,0,0,0,0,-1.3806,-1.3741,-1.3869,-1.3897,-1.39,-1.3954,-1.3956,-1.3957,-1.3989,-1.3989,-1.3988,-1.3988,-1.4077,-1.4081,-1.4085,-1.4118,0,0,-1.4097,-1.4099,0,0,0,0,0,0,0,0,-1.3802,-1.3811,-1.3892,-1.3895,-1.3899,-1.396,-1.3943,-1.4011,-1.3989,-1.3955,-1.3988,-1.3988,-1.404,-1.4047,-1.4064,-1.4122,-1.4126,-1.4098,-1.41,-1.4102,-1.4103,0,0,0,0,0,0,0,-1.3797,-1.3807,-1.3903,-1.3893,-1.3897,-1.3907,-1.3916,-1.3956,-1.3999,-1.3958,-1.3961,-1.397,-1.4042,-1.406,-1.4067,-1.4128,-1.4098,-1.4101,-1.4104,-1.4105,-1.4218,-1.4219,0,0,0,0,0,0,-1.3787,-1.3803,-1.39,-1.3905,-1.3848,-1.391,-1.392,-1.3941,-1.3999,-1.4007,-1.3971,-1.3972,-1.4054,-1.4062,-1.407,-1.4113,-1.4102,-1.4106,-1.4108,-1.4217,-1.4218,-1.4219,0,0,0,0,0,0,-1.3784,-1.3796,-1.3897,-1.3855,-1.3869,-1.3912,-1.3936,-1.3943,-1.3961,-1.4008,-1.4016,-1.3981,-1.4054,-1.4064,-1.4106,-1.4117,-1.4107,-1.4111,-1.4217,-1.4218,-1.4218,-1.4199,0,0,0,0,0,0,-1.378,-1.3794,-1.3806,-1.3855,-1.3871,-1.393,-1.3937,-1.3945,-1.3968,-1.397,-1.402,-1.4028,-1.4054,-1.41,-1.411,-1.4122,-1.4114,-1.4216,-1.4217,-1.4218,-1.4198,-1.4199,-1.4199,0,0,0,0,0,-1.3776,-1.3798,-1.3807,-1.3818,-1.3886,-1.393,-1.3939,-1.3968,-1.3968,-1.3982,-1.4012,-1.4026,-1.4114,-1.4104,-1.4115,-1.4129,-1.4215,-1.4217,-1.4218,-1.4198,-1.4199,-1.4199,0,0,0,0,0,0,-1.3751,-1.3805,-1.3815,-1.3854,-1.3887,-1.3936,-1.3953,-1.3967,-1.4002,-1.4003,-1.4038,-1.4049,-1.4088,-1.4113,-1.4101,-1.4164,-1.4166,-1.4169,-1.4147,-1.4147,-1.4147,-1.4141,-1.4118,0,0,0,0,0,-1.3749,-1.3779,-1.3826,-1.3855,-1.3871,-1.3909,-1.3929,-1.3948,-1.3985,-1.4,-1.4033,-1.4069,-1.4105,-1.4127,-1.4163,-1.4202,-1.4214,-1.4217,-1.4217,-1.4217,-1.422,-1.4244,-1.4246,-1.4223,-1.4223,-1.4223,0,0,-1.3748,-1.3781,-1.3798,-1.3851,-1.3879,-1.391,-1.3921,-1.3954,-1.3978,-1.4005,-1.4046,-1.4072,-1.4114,-1.4155,-1.4175,-1.4177,-1.4229,-1.4219,-1.4219,-1.4222,-1.4246,-1.4248,-1.425,-1.4224,-1.4224,-1.4224,0,0,-1.376,-1.3788,-1.3816,-1.3843,-1.3885,-1.3911,-1.3917,-1.3964,-1.3982,-1.4023,-1.4044,-1.4074,-1.4135,-1.4164,-1.4187,-1.4212,-1.4227,-1.4222,-1.4223,-1.4246,-1.4248,-1.425,-1.4259,-1.4262,-1.4225,-1.4225,-1.4225,0,-1.3753,-1.38,-1.3829,-1.386,-1.3883,-1.3908,-1.3938,-1.3964,-1.4016,-1.4032,-1.4033,-1.411,-1.414,-1.4189,-1.4194,-1.4212,-1.4222,-1.4217,-1.4245,-1.4247,-1.4249,-1.4259,-1.4262,-1.4224,-1.4224,-1.4224,-1.4225,0,-1.3789,-1.3821,-1.3839,-1.3887,-1.3913,-1.3943,-1.3978,-1.4,-1.4017,-1.4043,-1.4085,-1.4123,-1.4166,-1.4179,-1.4197,-1.423,-1.423,-1.4238,-1.424,-1.425,-1.4259,-1.4263,-1.4223,-1.4223,-1.4224,-1.4224,0,0,-1.3789,-1.3852,-1.3858,-1.388,-1.3929,-1.3955,-1.3987,-1.4028,-1.4047,-1.4083,-1.4111,-1.4162,-1.4169,-1.4195,-1.4217,-1.4236,-1.4254,-1.4242,-1.4243,-1.4243,-1.4294,-1.4289,-1.4292,-1.4264,-1.4265,-1.4266,-1.4291,0,-1.3808,-1.3865,-1.3892,-1.3937,-1.3968,-1.3992,-1.4021,-1.4054,-1.4079,-1.411,-1.4138,-1.4173,-1.418,-1.4196,-1.4216,-1.4247,-1.4265,-1.4246,-1.4292,-1.4294,-1.4281,-1.4297,-1.4291,-1.4313,-1.4295,-1.4295,-1.4296,0,-1.3838,-1.3872,-1.392,-1.3965,-1.3979,-1.4003,-1.4044,-1.4073,-1.4112,-1.4128,-1.4157,-1.4178,-1.4214,-1.4213,-1.4264,-1.4251,-1.4272,-1.429,-1.4291,-1.4297,-1.4295,-1.4304,-1.4321,-1.4324,-1.4302,-1.4301,-1.4301,0,-1.3834,-1.3891,-1.3927,-1.3946,-1.3999,-1.4016,-1.4039,-1.4078,-1.4101,-1.4137,-1.4153,-1.4193,-1.4215,-1.4246,-1.4278,-1.4274,-1.4326,-1.4328,-1.4342,-1.4341,-1.4352,-1.4351,-1.4373,-1.4364,-1.4364,-1.4364,-1.4364,0,-1.3853,-1.3882,-1.3926,-1.3948,-1.3982,-1.4013,-1.4046,-1.4071,-1.4105,-1.4134,-1.4158,-1.4185,-1.4224,-1.4257,-1.4282,-1.432,-1.433,-1.4346,-1.4352,-1.4344,-1.4342,-1.4358,-1.4358,-1.4365,-1.4365,-1.4365,-1.4364,0,-1.3854,-1.3884,-1.3926,-1.3972,-1.3985,-1.4007,-1.4048,-1.4072,-1.4097,-1.4134,-1.4144,-1.4185,-1.4224,-1.4258,-1.4311,-1.4328,-1.4368,-1.4375,-1.4354,-1.4358,-1.437,-1.4369,-1.4404,-1.4411,-1.4396,-1.4397,-1.4397,0,-1.3864,-1.3887,-1.3935,-1.3955,-1.3978,-1.401,-1.4034,-1.4066,-1.409,-1.4136,-1.4155,-1.4195,-1.423,-1.4291,-1.4327,-1.4367,-1.4376,-1.4386,-1.4383,-1.4374,-1.4377,-1.4376,-1.4379,-1.4386,-1.4386,-1.4386,-1.4386,0,-1.388,-1.3894,-1.3926,-1.3964,-1.3991,-1.4023,-1.4056,-1.4071,-1.411,-1.4136,-1.4175,-1.4202,-1.4255,-1.4295,-1.4339,-1.4365,-1.4383,-1.4387,-1.4392,-1.4384,-1.4371,-1.4379,-1.4355,-1.4386,-1.4386,-1.4386,-1.4386,-1.4386,-1.3887,-1.3908,-1.3945,-1.398,-1.4008,-1.4038,-1.4062,-1.4091,-1.4124,-1.4168,-1.4186,-1.4226,-1.4266,-1.4327,-1.4352,-1.4386,-1.4389,-1.4396,-1.4399,-1.44,-1.4399,-1.4365,-1.4394,-1.4394,-1.4394,-1.4394,-1.4394,0,-1.3904,-1.3929,-1.3961,-1.4005,-1.4033,-1.4046,-1.4082,-1.4106,-1.4141,-1.4175,-1.4208,-1.4254,-1.4294,-1.4332,-1.4374,-1.4393,-1.4402,-1.4403,-1.4402,-1.4408,-1.4394,-1.4385,-1.4395,-1.4395,-1.4395,-1.4395,-1.4395,-1.4395,-1.3916,-1.3953,-1.3971,-1.4022,-1.4048,-1.4087,-1.4107,-1.4135,-1.4163,-1.4212,-1.4245,-1.4269,-1.4306,-1.435,-1.4387,-1.4398,-1.4413,-1.4411,-1.4424,-1.441,-1.4409,-1.4409,-1.4401,-1.4414,-1.4414,-1.4436,-1.4436,-1.4436]},{"header":{"parameterUnit":"m.s-1","parameterCategory":1,"la1":30.2991,"la2":30.254,"lo1":-89.0895,"lo2":-89.0444,"dy":0.0017,"dx":0.0017,"nx":28,"ny":28,"refTime":"2024-05-06T21:00:00:Z","depth":0,"parameterNumber":3,"parameterNumberName":"V-component_of_WINDS"},"data":[0,0,0,0,0,0,0,0,0,0,0,0,0,0,0,0,0,0,0,0,0,0,0,0,0,0,0,0,0,0,0,0,0,0,0,0,0,0,0,0,0,0,0,0,0,0,0,0,0,0,0,0,0,0,0,0,0,0,4.8889,4.889,0,4.9003,4.9004,4.9006,4.9005,4.9004,4.9002,4.9001,4.9117,4.9122,4.9126,0,0,0,0,0,0,0,0,0,0,0,0,0,4.8669,4.8673,4.8888,4.889,4.8891,4.9003,4.9004,4.9006,4.9006,4.9004,4.9002,4.9,4.9116,4.9121,4.9127,0,0,0,0,0,0,0,0,0,0,0,0,0,4.8772,4.8675,4.8888,4.8905,4.8907,4.9002,4.9004,4.9006,4.9006,4.9004,4.9001,4.8999,4.9114,4.9121,4.9127,4.9214,0,0,4.9148,4.9151,0,0,0,0,0,0,0,0,4.8766,4.878,4.8901,4.8904,4.8907,4.8988,4.897,4.9076,4.9006,4.8968,4.9001,4.8998,4.9076,4.9086,4.9112,4.9219,4.9224,4.9148,4.9153,4.9155,4.9157,0,0,0,0,0,0,0,4.8759,4.8775,4.8934,4.8902,4.8906,4.8906,4.8918,4.899,4.9033,4.8972,4.8972,4.8985,4.9077,4.9105,4.9115,4.9226,4.9148,4.9154,4.9158,4.9161,4.941,4.9412,0,0,0,0,0,0,4.8749,4.8769,4.893,4.8937,4.883,4.8912,4.8925,4.8964,4.9032,4.9041,4.8987,4.8985,4.9095,4.9107,4.9119,4.9225,4.9155,4.9162,4.9166,4.9407,4.9411,4.9413,0,0,0,0,0,0,4.8744,4.8763,4.8925,4.8853,4.8874,4.8918,4.8961,4.8967,4.8996,4.9044,4.9052,4.9008,4.9094,4.9109,4.919,4.9229,4.9165,4.9171,4.9404,4.9408,4.9412,4.9437,0,0,0,0,0,0,4.8738,4.8761,4.8795,4.8854,4.8878,4.8995,4.8964,4.8971,4.9007,4.9006,4.9066,4.9074,4.9093,4.918,4.9197,4.9237,4.9176,4.9401,4.9406,4.9411,4.9433,4.9441,4.9448,0,0,0,0,0,4.873,4.8797,4.8796,4.8816,4.892,4.8997,4.9011,4.9032,4.901,4.9044,4.9076,4.9072,4.9222,4.9188,4.9207,4.925,4.9399,4.9405,4.941,4.9429,4.9439,4.9448,0,0,0,0,0,0,4.874,4.8805,4.8805,4.8893,4.894,4.8997,4.904,4.9042,4.9095,4.9091,4.9115,4.9128,4.9209,4.9238,4.9199,4.9337,4.9308,4.9318,4.9316,4.9326,4.9333,4.9324,4.9182,0,0,0,0,0,4.8753,4.881,4.8863,4.8936,4.8959,4.8996,4.903,4.9042,4.9091,4.9111,4.9148,4.9196,4.9254,4.9291,4.9347,4.9437,4.945,4.9476,4.9483,4.9489,4.9497,4.9547,4.9559,4.9432,4.9432,4.9432,0,0,4.8779,4.8822,4.8856,4.8939,4.8977,4.9035,4.9012,4.9075,4.9119,4.912,4.9199,4.9228,4.9283,4.9369,4.9409,4.9395,4.9536,4.9497,4.9501,4.9506,4.9555,4.9567,4.9577,4.9436,4.9436,4.9435,0,0,4.8857,4.8895,4.896,4.8998,4.9056,4.908,4.9095,4.9153,4.9172,4.9252,4.9254,4.9307,4.9406,4.9445,4.9478,4.9572,4.957,4.9589,4.9629,4.9678,4.9688,4.9697,4.973,4.9742,4.9597,4.9597,4.9597,0,4.8883,4.8971,4.8993,4.9057,4.9093,4.9098,4.9163,4.9199,4.9272,4.9297,4.9281,4.9406,4.9443,4.9538,4.9561,4.9588,4.9607,4.9582,4.9684,4.9694,4.9702,4.9735,4.9747,4.9599,4.9599,4.9599,4.9598,0,4.9,4.9062,4.9107,4.9177,4.9219,4.9283,4.9315,4.9354,4.9363,4.9389,4.947,4.9515,4.958,4.9604,4.9613,4.9701,4.9691,4.9679,4.965,4.9716,4.9747,4.9759,4.9602,4.9601,4.9601,4.96,0,0,4.9087,4.9169,4.9186,4.9218,4.9282,4.933,4.9394,4.9458,4.9492,4.9542,4.9597,4.9681,4.9672,4.9709,4.9722,4.9765,4.9837,4.9749,4.975,4.9763,4.9937,4.9945,4.9959,4.9837,4.9839,4.9841,4.9932,0,4.9172,4.9287,4.9309,4.9409,4.9466,4.9472,4.9528,4.9573,4.9599,4.9652,4.968,4.974,4.9722,4.9745,4.9787,4.9819,4.9872,4.9813,4.9888,4.989,4.9874,4.9975,4.9983,5.0067,4.9944,4.9946,4.9948,0,4.9286,4.934,4.9445,4.9502,4.9527,4.9577,4.9638,4.9688,4.974,4.9756,4.9798,4.9807,4.9875,4.9843,4.9936,4.9896,4.9928,4.9948,4.9952,4.9959,4.9923,4.9985,5.0094,5.0106,4.9967,4.9965,4.9964,0,4.9339,4.9438,4.9514,4.9541,4.9609,4.9644,4.9674,4.9724,4.9761,4.9815,4.9839,4.99,4.9933,4.9979,5.0005,4.9979,5.0097,5.0067,5.0112,5.0111,5.0136,5.0134,5.0251,5.0157,5.0157,5.0157,5.0156,0,4.9432,4.9496,4.9539,4.9585,4.9658,4.9682,4.9753,4.9783,4.9827,4.988,4.9889,4.9938,4.9968,5.0022,5.0043,5.0117,5.0132,5.0147,5.0151,5.0146,5.0144,5.0167,5.0162,5.016,5.0159,5.0158,5.0158,0,4.9503,4.9534,4.9617,4.9675,4.9691,4.9742,4.9792,4.9837,4.9864,4.993,4.9947,4.9988,5.0052,5.0082,5.0161,5.0175,5.026,5.0261,5.0242,5.0244,5.0287,5.0283,5.0424,5.0444,5.0336,5.0337,5.0338,0,4.956,4.961,4.9673,4.9709,4.974,4.9798,4.9836,4.9862,4.9902,4.9965,5.0003,5.0068,5.012,5.0222,5.0259,5.032,5.0322,5.0367,5.0331,5.0324,5.0323,5.032,5.0325,5.0374,5.0375,5.0376,5.0376,0,4.9657,4.967,4.9725,4.9786,4.9831,4.988,4.9929,4.9958,4.9991,5.0036,5.0101,5.0142,5.0223,5.0287,5.035,5.0381,5.0385,5.0387,5.0401,5.0396,5.0383,5.0391,5.026,5.0384,5.0383,5.0383,5.0382,5.0382,4.9723,4.9768,4.982,4.9881,4.992,4.9964,5.001,5.0043,5.0098,5.0166,5.0178,5.0248,5.0299,5.0384,5.0418,5.0473,5.0462,5.0482,5.0487,5.0491,5.0494,5.0375,5.0484,5.0484,5.0484,5.0484,5.0484,0,4.9821,4.9855,4.9911,4.9978,5.0026,5.0025,5.0079,5.0119,5.018,5.0228,5.028,5.0355,5.0417,5.046,5.0523,5.0559,5.0562,5.0574,5.0572,5.0579,5.05,5.0481,5.0571,5.0571,5.0571,5.0571,5.0571,5.0571,4.9878,4.9954,4.9973,5.0068,5.0101,5.017,5.02,5.0242,5.028,5.0364,5.0415,5.0443,5.0488,5.0555,5.0612,5.0623,5.0646,5.0659,5.0669,5.0594,5.0585,5.0576,5.0559,5.0663,5.0663,5.0744,5.0745,5.0745]}]]